Location: Ay?beleni
(36.6500°N, 30.3000°E)
Time: 00:40:56
(UTC+00:00)

Meteor 1-16 Rocket - Pass Details

Date: 09 April 2020
Orbit: 791 x 907 km, 81.2° (Epoch: 25 May)

Event Time Altitude Azimuth Distance (km) Brightness Sun altitude
Rises 16:45:41 0° 174° (S) 3,293 7.1 -4.3°
Reaches altitude 10° 16:48:04 10° 169° (S) 2,378 6.3 -4.7°
Maximum altitude 16:53:16 53° 94° (E) 999 4.3 -5.7°
Drops below altitude 10° 16:58:39 10° 19° (NNE) 2,460 6.6 -6.8°
Sets 17:01:09 0° 14° (NNE) 3,417 7.4 -7.3°
